Weather History for Carrollton, GA

Change the Weather History Date:

Saturday, March 29, 2014

  Actual Average Record
Temperature  
Mean Temperature 54 °F -  
Max Temperature 62 °F 70 °F 82 °F (1963)
Min Temperature 46 °F 46 °F 25 °F (1966)
Degree Days  
Heating Degree Days 11    
Growing Degree Days 4 (Base 50)    
Moisture  
Dew Point 53 °F    
Average Humidity 88    
Maximum Humidity 100    
Minimum Humidity 59    
Precipitation  
Precipitation 0.00 in - - ()
Sea Level Pressure  
Sea Level Pressure 29.91 in    
Wind  
Wind Speed 6 mph (West)    
Max Wind Speed 20 mph    
Max Gust Speed 31 mph    
Visibility 8 miles    
Events Rain    
Averages and records for this station are not official NWS values.
T = Trace of Precipitation, MM = Missing Value Source: NWS Daily Summary

Daily Weather History Graph

Daily Weather History Graph

Search for Another Location

Airport:

Trip Planner

Search our weather history database for the weather conditions in past years. The results will help you decide how hot, cold, wet, or windy it might be!

Date:

Astronomy

Mar. 29, 2014 Rise Set
Actual Time 7:32 AM EDT 7:58 PM EDT
Civil Twilight 7:07 AM EDT 8:23 PM EDT
Nautical Twilight 6:37 AM EDT 8:53 PM EDT
Astronomical Twilight 6:08 AM EDT 9:23 PM EDT
Moon 6:37 AM EDT (3/29) 7:04 PM EDT (3/29)
Length of Visible Light 13h 16m
Length of Day
12h 26m
Waning Crescent, 2% of the Moon is Illuminated
Mar 29
Waning Crescent
Mar 30
New
Apr 7
First Quarter
Apr 15
Full
Apr 22
Last Quarter

Hourly Weather History & Observations

Time (EDT) Temp. Windchill Dew Point Humidity Pressure Visibility Wind Dir Wind Speed Gust Speed Precip Events Conditions
12:13 AM 59.0 °F - 57.2 °F 94% 30.01 in 4.0 mi Calm Calm - N/A   Light Drizzle
12:33 AM 59.0 °F - 57.2 °F 94% 30.00 in 4.0 mi Calm Calm - N/A   Drizzle
12:53 AM 59.0 °F - 59.0 °F 100% 29.99 in 5.0 mi Calm Calm - N/A   Light Drizzle
1:13 AM 59.0 °F - 59.0 °F 100% 29.98 in 7.0 mi Calm Calm - N/A   Overcast
1:33 AM 59.0 °F - 59.0 °F 100% 29.96 in 10.0 mi ESE 5.8 mph - N/A   Overcast
1:53 AM 59.0 °F - 59.0 °F 100% 29.94 in 5.0 mi ESE 4.6 mph - N/A Rain Rain
2:13 AM 59.0 °F - 59.0 °F 100% 29.95 in 4.0 mi SE 3.5 mph - N/A   Light Drizzle
2:33 AM 59.0 °F - 59.0 °F 100% 29.95 in 4.0 mi SE 3.5 mph - N/A Rain Light Rain
2:53 AM 59.0 °F - 59.0 °F 100% 29.94 in 3.0 mi SE 3.5 mph - N/A   Drizzle
3:13 AM 59.0 °F - 59.0 °F 100% 29.92 in 5.0 mi SE 5.8 mph - N/A   Drizzle
3:33 AM 59.0 °F - 59.0 °F 100% 29.89 in 5.0 mi East 5.8 mph - N/A   Drizzle
3:53 AM 59.0 °F - 59.0 °F 100% 29.89 in 10.0 mi ESE 4.6 mph - N/A   Overcast
4:13 AM 59.0 °F - 59.0 °F 100% 29.87 in 10.0 mi ESE 4.6 mph - N/A   Overcast
4:33 AM 59.0 °F - 59.0 °F 100% 29.88 in 10.0 mi SE 5.8 mph - N/A   Overcast
4:53 AM 59.0 °F - 59.0 °F 100% 29.88 in 5.0 mi SE 4.6 mph - N/A   Overcast
5:13 AM 59.0 °F - 59.0 °F 100% 29.89 in 2.5 mi Calm Calm - N/A   Overcast
5:33 AM 59.0 °F - 59.0 °F 100% 29.88 in 3.0 mi Calm Calm - N/A   Drizzle
5:53 AM 59.0 °F - 59.0 °F 100% 29.88 in 2.5 mi SE 4.6 mph - N/A   Light Drizzle
6:13 AM 59.0 °F - 59.0 °F 100% 29.89 in 3.0 mi South 3.5 mph - N/A   Drizzle
6:33 AM 59.0 °F - 59.0 °F 100% 29.91 in 4.0 mi Calm Calm - N/A   Drizzle
6:53 AM 59.0 °F - 59.0 °F 100% 29.88 in 4.0 mi South 4.6 mph - N/A   Light Drizzle
7:13 AM 59.0 °F - 59.0 °F 100% 29.87 in 7.0 mi SSE 6.9 mph - N/A   Overcast
7:33 AM 59.0 °F - 59.0 °F 100% 29.82 in 10.0 mi SE 9.2 mph - N/A   Overcast
7:53 AM 59.0 °F - 59.0 °F 100% 29.78 in 10.0 mi SE 11.5 mph 17.3 mph N/A Rain Light Rain
8:13 AM 59.0 °F - 59.0 °F 100% 29.79 in 10.0 mi SE 12.7 mph - N/A   Overcast
8:33 AM 59.0 °F - 59.0 °F 100% 29.81 in 10.0 mi South 4.6 mph - N/A   Overcast
8:53 AM 59.0 °F - 59.0 °F 100% 29.83 in 10.0 mi SSW 4.6 mph - N/A   Overcast
9:13 AM 59.0 °F - 59.0 °F 100% 29.84 in 10.0 mi SSW 4.6 mph - N/A   Overcast
9:33 AM 59.0 °F - 59.0 °F 100% 29.83 in 10.0 mi South 4.6 mph - N/A   Overcast
9:53 AM 59.0 °F - 59.0 °F 100% 29.84 in 10.0 mi SSW 5.8 mph - N/A   Overcast
10:13 AM 59.0 °F - 59.0 °F 100% 29.82 in 10.0 mi SSW 6.9 mph - N/A   Overcast
10:33 AM 60.8 °F - 57.2 °F 88% 29.83 in 10.0 mi SSW 9.2 mph 16.1 mph N/A   Overcast
10:53 AM 60.8 °F - 57.2 °F 88% 29.83 in 10.0 mi SW 6.9 mph - N/A   Drizzle
11:13 AM 60.8 °F - 59.0 °F 94% 29.83 in 10.0 mi SW 6.9 mph - N/A   Overcast
11:33 AM 60.8 °F - 59.0 °F 94% 29.83 in 10.0 mi WSW 5.8 mph - N/A   Overcast
11:53 AM 60.8 °F - 57.2 °F 88% 29.82 in 10.0 mi SW 8.1 mph - N/A   Overcast
12:13 PM 60.8 °F - 57.2 °F 88% 29.82 in 10.0 mi Calm Calm - N/A   Overcast
12:33 PM 60.8 °F - 59.0 °F 94% 29.82 in 10.0 mi WSW 3.5 mph - N/A   Overcast
12:53 PM 62.6 °F - 57.2 °F 82% 29.82 in 10.0 mi WSW 6.9 mph - N/A   Overcast
1:13 PM 60.8 °F - 59.0 °F 94% 29.82 in 5.0 mi West 5.8 mph - N/A   Light Drizzle
1:33 PM 60.8 °F - 59.0 °F 94% 29.82 in 4.0 mi WNW 10.4 mph 18.4 mph N/A Rain Heavy Rain
1:53 PM 62.6 °F - 59.0 °F 88% 29.82 in 10.0 mi WNW 11.5 mph 20.7 mph N/A   Overcast
2:13 PM 62.6 °F - 57.2 °F 82% 29.82 in 10.0 mi WNW 13.8 mph 19.6 mph N/A   Overcast
2:33 PM 60.8 °F - 57.2 °F 88% 29.83 in 10.0 mi WNW 10.4 mph 19.6 mph N/A   Overcast
2:53 PM 62.6 °F - 55.4 °F 77% 29.83 in 10.0 mi WNW 9.2 mph 20.7 mph N/A   Overcast
3:13 PM 62.6 °F - 55.4 °F 77% 29.83 in 10.0 mi NW 12.7 mph - N/A   Overcast
3:33 PM 59.0 °F - 55.4 °F 88% 29.85 in 10.0 mi WNW 15.0 mph 26.5 mph N/A Rain Light Rain
3:53 PM 59.0 °F - 51.8 °F 77% 29.86 in 10.0 mi NW 17.3 mph 24.2 mph N/A   Overcast
4:13 PM 59.0 °F - 51.8 °F 77% 29.86 in 10.0 mi NW 12.7 mph 28.8 mph N/A   Overcast
4:33 PM 59.0 °F - 50.0 °F 72% 29.87 in 10.0 mi NW 10.4 mph 25.3 mph N/A   Overcast
4:53 PM 59.0 °F - 48.2 °F 67% 29.88 in 10.0 mi NW 15.0 mph 26.5 mph N/A   Mostly Cloudy
5:13 PM 59.0 °F - 46.4 °F 63% 29.88 in 10.0 mi NW 16.1 mph 25.3 mph N/A   Mostly Cloudy
5:33 PM 59.0 °F - 44.6 °F 59% 29.90 in 10.0 mi NW 18.4 mph 28.8 mph N/A   Overcast
5:53 PM 55.4 °F - 44.6 °F 67% 29.92 in 10.0 mi NW 16.1 mph 29.9 mph N/A   Overcast
6:13 PM 53.6 °F - 44.6 °F 72% 29.93 in 10.0 mi WNW 19.6 mph 31.1 mph N/A   Overcast
6:33 PM 53.6 °F - 44.6 °F 72% 29.95 in 10.0 mi NW 13.8 mph 26.5 mph N/A   Overcast
6:53 PM 51.8 °F - 44.6 °F 76% 29.97 in 10.0 mi NW 13.8 mph 23.0 mph N/A   Overcast
7:13 PM 51.8 °F - 44.6 °F 76% 29.98 in 10.0 mi NW 11.5 mph 24.2 mph N/A   Overcast
7:33 PM 50.0 °F - 42.8 °F 76% 29.98 in 10.0 mi NW 15.0 mph 20.7 mph N/A   Overcast
7:53 PM 50.0 °F - 42.8 °F 76% 29.99 in 10.0 mi NW 15.0 mph 25.3 mph N/A   Overcast
8:13 PM 50.0 °F - 42.8 °F 76% 30.00 in 10.0 mi NNW 13.8 mph 24.2 mph N/A   Overcast
8:33 PM 50.0 °F - 41.0 °F 71% 30.01 in 10.0 mi NW 18.4 mph 29.9 mph N/A   Overcast
8:53 PM 48.2 °F - 41.0 °F 76% 30.02 in 10.0 mi NW 10.4 mph 23.0 mph N/A   Overcast
9:13 PM 48.2 °F - 41.0 °F 76% 30.02 in 10.0 mi NW 13.8 mph 20.7 mph N/A   Overcast
9:33 PM 48.2 °F - 41.0 °F 76% 30.04 in 10.0 mi NW 10.4 mph 27.6 mph N/A   Overcast
9:53 PM 48.2 °F - 41.0 °F 76% 30.04 in 10.0 mi NW 15.0 mph 26.5 mph N/A   Overcast
10:13 PM 46.4 °F 39.8 °F 39.2 °F 76% 30.05 in 10.0 mi NW 16.1 mph 25.3 mph N/A   Overcast
10:33 PM 46.4 °F 40.7 °F 39.2 °F 76% 30.05 in 10.0 mi NNW 12.7 mph 26.5 mph N/A   Overcast
10:53 PM 46.4 °F 41.1 °F 39.2 °F 76% 30.06 in 10.0 mi NW 11.5 mph 23.0 mph N/A   Overcast
11:13 PM 46.4 °F 40.4 °F 39.2 °F 76% 30.07 in 10.0 mi NNW 13.8 mph 26.5 mph N/A   Overcast
11:33 PM 46.4 °F 40.1 °F 39.2 °F 76% 30.07 in 10.0 mi NW 15.0 mph 20.7 mph N/A   Overcast
11:53 PM 46.4 °F 40.1 °F 37.4 °F 71% 30.06 in 10.0 mi NW 15.0 mph 21.9 mph N/A   Overcast